Location: Voyageurs National Park
(48.5020°N, 92.9292°W)
Time: 18:34:18
(UTC-05:00)

PCSat - Visible Passes

Search period start: 01 September 2014 00:00
Search period end: 11 September 2014 00:00
Orbit: 786 x 796 km, 67.1° (Epoch: 01 September)

Date Brightness Start Highest point End Pass type
(mag) Time Alt. Az. Time Alt. Az. Time Alt. Az.
01 Sep 11.4 00:20:42 10° NNW 00:25:07 24° NE 00:26:16 23° NE visible
01 Sep 10.7 02:03:45 10° NW 02:06:57 37° NW 02:06:57 37° NW visible
01 Sep 12.3 22:07:20 10° N 22:08:39 11° N 22:09:59 10° NNE visible
01 Sep 11.6 23:50:15 10° NNW 23:54:19 21° NNE 23:55:56 18° NE visible
02 Sep 10.7 01:33:11 10° NNW 01:36:37 39° NNW 01:36:37 39° NNW visible
02 Sep 12.3 21:36:34 10° N 21:37:40 11° N 21:38:47 10° NNE visible
02 Sep 11.7 23:19:48 10° NNW 23:23:28 18° NNE 23:25:40 14° NE visible
03 Sep 10.7 01:02:39 10° NNW 01:06:22 41° N 01:06:22 41° N visible
03 Sep 11.9 02:46:39 10° NW 02:47:04 12° WNW 02:47:04 12° WNW visible
03 Sep 12.3 21:05:31 10° NNW 21:06:41 11° N 21:07:52 10° N visible
03 Sep 11.9 22:49:21 10° NNW 22:52:35 16° NNE 22:55:28 11° ENE visible
04 Sep 10.7 00:32:09 10° NNW 00:36:10 40° N 00:36:10 40° N visible
04 Sep 11.8 02:15:49 10° NW 02:16:52 15° NW 02:16:52 15° NW visible
04 Sep 12.2 20:34:13 10° NNW 20:35:42 11° N 20:37:12 10° N visible
04 Sep 12.0 22:18:54 10° NNW 22:21:41 14° NNE 22:24:26 10° NE visible
05 Sep 10.8 00:01:39 10° NNW 00:06:01 36° NNE 00:06:01 36° NNE visible
05 Sep 11.6 01:45:05 10° NW 01:46:43 19° NW 01:46:43 19° NW visible
05 Sep 12.0 21:48:27 10° N 21:50:44 13° NNE 21:53:02 10° NE visible
05 Sep 10.9 23:31:10 10° NNW 23:35:54 31° NE 23:35:54 31° NE visible
06 Sep 11.4 01:14:25 10° NW 01:16:36 25° NW 01:16:36 25° NW visible
06 Sep 12.0 21:17:57 10° N 21:19:47 12° N 21:21:37 10° NNE visible
06 Sep 11.1 23:00:42 10° NNW 23:05:13 26° NE 23:05:50 25° NE visible
07 Sep 11.1 00:43:48 10° NW 00:46:32 31° NW 00:46:32 31° NW visible
07 Sep 12.1 20:47:23 10° N 20:48:49 11° N 20:50:14 10° NNE visible
07 Sep 11.3 22:30:15 10° NNW 22:34:25 22° NNE 22:35:47 20° NE visible
08 Sep 10.8 00:13:13 10° NNW 00:16:30 38° NNW 00:16:30 38° NNW visible
08 Sep 12.1 20:16:41 10° N 20:17:50 11° N 20:18:58 10° NNE visible
08 Sep 11.5 21:59:48 10° NNW 22:03:35 19° NNE 22:05:47 15° ENE visible
08 Sep 10.6 23:42:41 10° NNW 23:46:29 43° N 23:46:29 43° N visible
09 Sep 12.1 01:26:47 10° WNW 01:27:12 12° WNW 01:27:12 12° WNW visible
09 Sep 11.7 21:29:21 10° NNW 21:32:42 16° NNE 21:35:48 11° ENE visible
09 Sep 10.4 23:12:09 10° NNW 23:16:31 45° NNE 23:16:31 45° NNE visible
10 Sep 11.9 00:55:55 10° NW 00:57:14 17° WNW 00:57:14 17° WNW visible
10 Sep 11.8 20:58:54 10° NNW 21:01:48 14° NNE 21:04:42 10° NE visible
10 Sep 10.4 22:41:39 10° NNW 22:46:34 40° NE 22:46:34 40° NE visible
